| time (UTC) | temp F | wind direction | speed MPH | gust MPH | rain 1hr in | rain 24hr in | rain mn in | humidity % | barometer mb |
| 20260508173053 | 72 | 97 | 2.0 | 7.0 | 0.00 | 0.00 | 0.00 | 85 | 1012.1 |
| 20260508172553 | 72 | 110 | 2.0 | 7.0 | 0.00 | 0.00 | 0.00 | 85 | 1012.1 |
| 20260508172055 | 72 | 105 | 2.0 | 7.0 | 0.00 | 0.00 | 0.00 | 85 | 1012.2 |
| 20260508171557 | 72 | 74 | 2.0 | 7.0 | 0.00 | 0.00 | 0.00 | 86 | 1012.2 |
| 20260508171051 | 71 | 0 | 0.0 | 5.0 | 0.00 | 0.00 | 0.00 | 86 | 1012.6 |
| 20260508170551 | 71 | 65 | 0.0 | 5.0 | 0.00 | 0.00 | 0.00 | 86 | 1012.7 |
| 20260508170058 | 71 | 109 | 2.0 | 5.0 | 0.00 | 0.00 | 0.00 | 85 | 1012.8 |
| 20260508165552 | 71 | 101 | 0.0 | 4.0 | 0.00 | 0.00 | 0.00 | 86 | 1013.0 |
| 20260508165052 | 71 | 0 | 1.0 | 4.0 | 0.00 | 0.00 | 0.00 | 86 | 1013.2 |
| 20260508164559 | 71 | 0 | 1.0 | 4.0 | 0.00 | 0.00 | 0.00 | 85 | 1013.2 |
| 20260508164054 | 71 | 92 | 0.0 | 4.0 | 0.00 | 0.00 | 0.00 | 85 | 1013.2 |
| 20260508163556 | 70 | 92 | 0.0 | 4.0 | 0.00 | 0.00 | 0.00 | 85 | 1013.4 |
| 20260508163056 | 70 | 92 | 1.0 | 4.0 | 0.00 | 0.00 | 0.00 | 85 | 1013.3 |
| 20260508162553 | 70 | 0 | 0.0 | 4.0 | 0.00 | 0.00 | 0.00 | 86 | 1013.3 |
| 20260508162054 | 70 | 83 | 1.0 | 4.0 | 0.00 | 0.00 | 0.00 | 86 | 1013.2 |
| 20260508161553 | 70 | 81 | 1.0 | 4.0 | 0.00 | 0.00 | 0.00 | 86 | 1013.2 |
| 20260508161052 | 70 | 51 | 1.0 | 4.0 | 0.00 | 0.00 | 0.00 | 86 | 1013.3 |
| 20260508160552 | 70 | 0 | 1.0 | 4.0 | 0.00 | 0.00 | 0.00 | 85 | 1013.6 |
| 20260508160056 | 70 | 76 | 2.0 | 4.0 | 0.00 | 0.00 | 0.00 | 85 | 1013.5 |
| 20260508155554 | 70 | 0 | 1.0 | 5.0 | 0.00 | 0.00 | 0.00 | 85 | 1013.6 |
| 20260508155055 | 70 | 80 | 2.0 | 5.0 | 0.00 | 0.00 | 0.00 | 85 | 1013.6 |
| 20260508154614 | 70 | 11 | 2.0 | 5.0 | 0.00 | 0.00 | 0.00 | 85 | 1013.4 |
| 20260508154051 | 70 | 76 | 2.0 | 5.0 | 0.00 | 0.00 | 0.00 | 85 | 1013.4 |
| 20260508153552 | 70 | 90 | 1.0 | 6.0 | 0.00 | 0.00 | 0.00 | 85 | 1013.5 |
| 20260508153055 | 70 | 92 | 2.0 | 6.0 | 0.00 | 0.00 | 0.00 | 85 | 1013.4 |
| 20260508152552 | 70 | 86 | 2.0 | 10.0 | 0.00 | 0.00 | 0.00 | 85 | 1013.3 |
| 20260508152051 | 69 | 68 | 3.0 | 10.0 | 0.00 | 0.00 | 0.00 | 85 | 1013.1 |
| 20260508151556 | 69 | 74 | 4.0 | 9.0 | 0.00 | 0.00 | 0.00 | 86 | 1012.9 |
| 20260508151051 | 69 | 44 | 4.0 | 9.0 | 0.00 | 0.00 | 0.00 | 86 | 1012.9 |
| 20260508150555 | 68 | 65 | 3.0 | 6.0 | 0.00 | 0.00 | 0.00 | 86 | 1012.9 |
| 20260508150055 | 68 | 83 | 3.0 | 7.0 | 0.00 | 0.00 | 0.00 | 86 | 1013.1 |
| 20260508145552 | 68 | 24 | 3.0 | 7.0 | 0.00 | 0.00 | 0.00 | 87 | 1013.3 |
| 20260508145052 | 67 | 47 | 2.0 | 6.0 | 0.00 | 0.00 | 0.00 | 87 | 1013.4 |
| 20260508144608 | 67 | 26 | 3.0 | 6.0 | 0.00 | 0.00 | 0.00 | 87 | 1013.5 |
| 20260508144053 | 67 | 32 | 0.0 | 6.0 | 0.00 | 0.00 | 0.00 | 87 | 1013.6 |
| 20260508143554 | 67 | 0 | 1.0 | 6.0 | 0.00 | 0.00 | 0.00 | 87 | 1013.7 |
| 20260508143107 | 67 | 35 | 1.0 | 5.0 | 0.00 | 0.00 | 0.00 | 87 | 1013.7 |
| 20260508142552 | 67 | 53 | 1.0 | 5.0 | 0.00 | 0.00 | 0.00 | 87 | 1013.8 |
| 20260508142052 | 66 | 38 | 3.0 | 5.0 | 0.00 | 0.00 | 0.00 | 86 | 1013.8 |
| 20260508141605 | 67 | 34 | 1.0 | 5.0 | 0.00 | 0.00 | 0.00 | 87 | 1013.7 |
| 20260508141052 | 67 | 81 | 2.0 | 7.0 | 0.00 | 0.00 | 0.00 | 87 | 1013.6 |
| 20260508140551 | 66 | 36 | 3.0 | 7.0 | 0.00 | 0.00 | 0.00 | 87 | 1013.6 |
| 20260508140055 | 66 | 49 | 2.0 | 5.0 | 0.00 | 0.00 | 0.00 | 87 | 1013.5 |
| 20260508135553 | 66 | 74 | 2.0 | 5.0 | 0.00 | 0.00 | 0.00 | 87 | 1013.7 |
| 20260508135052 | 66 | 0 | 1.0 | 5.0 | 0.00 | 0.00 | 0.00 | 87 | 1013.7 |
| 20260508134622 | 66 | 28 | 3.0 | 5.0 | 0.00 | 0.00 | 0.00 | 87 | 1013.6 |
| 20260508134053 | 66 | 70 | 1.0 | 4.0 | 0.00 | 0.00 | 0.00 | 87 | 1013.5 |
| 20260508133551 | 66 | 38 | 2.0 | 4.0 | 0.00 | 0.00 | 0.00 | 87 | 1013.6 |
| 20260508133104 | 66 | 42 | 1.0 | 4.0 | 0.00 | 0.00 | 0.00 | 87 | 1013.7 |
| 20260508132551 | 66 | 0 | 1.0 | 4.0 | 0.00 | 0.00 | 0.00 | 87 | 1013.6 |
| 20260508132053 | 66 | 36 | 1.0 | 4.0 | 0.00 | 0.00 | 0.00 | 87 | 1013.7 |
| 20260508131617 | 66 | 0 | 0.0 | 5.0 | 0.00 | 0.00 | 0.00 | 87 | 1013.9 |
| 20260508131051 | 66 | 66 | 1.0 | 5.0 | 0.00 | 0.00 | 0.00 | 86 | 1013.8 |
| 20260508130553 | 66 | 29 | 2.0 | 5.0 | 0.00 | 0.00 | 0.00 | 86 | 1013.8 |
| 20260508130058 | 66 | 30 | 1.0 | 5.0 | 0.00 | 0.00 | 0.00 | 86 | 1013.9 |
| 20260508125554 | 66 | 34 | 2.0 | 5.0 | 0.00 | 0.00 | 0.00 | 86 | 1013.8 |
| 20260508125053 | 66 | 28 | 2.0 | 5.0 | 0.00 | 0.00 | 0.00 | 86 | 1013.6 |
| 20260508124604 | 65 | 341 | 0.0 | 6.0 | 0.00 | 0.00 | 0.00 | 86 | 1013.5 |
| 20260508124053 | 65 | 41 | 1.0 | 6.0 | 0.00 | 0.00 | 0.00 | 86 | 1013.5 |
| 20260508123552 | 65 | 38 | 2.0 | 6.0 | 0.00 | 0.00 | 0.00 | 86 | 1013.6 |
| 20260508123056 | 65 | 11 | 2.0 | 6.0 | 0.00 | 0.00 | 0.00 | 86 | 1013.5 |
| 20260508122551 | 65 | 30 | 2.0 | 6.0 | 0.00 | 0.00 | 0.00 | 86 | 1013.6 |
| 20260508122051 | 65 | 87 | 1.0 | 6.0 | 0.00 | 0.00 | 0.00 | 86 | 1013.6 |
| 20260508121556 | 65 | 5 | 2.0 | 5.0 | 0.00 | 0.00 | 0.00 | 86 | 1013.6 |
| 20260508121055 | 65 | 38 | 3.0 | 7.0 | 0.00 | 0.00 | 0.00 | 86 | 1013.6 |
| 20260508120554 | 65 | 34 | 2.0 | 7.0 | 0.00 | 0.00 | 0.00 | 86 | 1013.8 |
| 20260508120058 | 65 | 5 | 3.0 | 7.0 | 0.00 | 0.00 | 0.00 | 86 | 1013.7 |
| 20260508115554 | 65 | 28 | 2.0 | 7.0 | 0.00 | 0.00 | 0.00 | 86 | 1013.8 |
| 20260508115057 | 65 | 47 | 2.0 | 6.0 | 0.00 | 0.00 | 0.00 | 85 | 1013.9 |
| 20260508114555 | 65 | 36 | 1.0 | 6.0 | 0.00 | 0.00 | 0.00 | 85 | 1013.8 |
| 20260508114051 | 65 | 360 | 2.0 | 6.0 | 0.00 | 0.00 | 0.00 | 85 | 1014.0 |
| 20260508113554 | 66 | 56 | 1.0 | 2.0 | 0.00 | 0.00 | 0.00 | 84 | 1014.0 |
| 20260508113055 | 66 | 0 | 0.0 | 3.0 | 0.00 | 0.00 | 0.00 | 84 | 1014.0 |
| 20260508112557 | 66 | 5 | 0.0 | 3.0 | 0.00 | 0.00 | 0.00 | 84 | 1013.9 |
| 20260508112053 | 66 | 5 | 1.0 | 3.0 | 0.00 | 0.00 | 0.00 | 84 | 1013.9 |
| 20260508111556 | 66 | 0 | 1.0 | 3.0 | 0.00 | 0.00 | 0.00 | 84 | 1013.8 |
| 20260508111054 | 66 | 298 | 0.0 | 2.0 | 0.00 | 0.00 | 0.00 | 84 | 1013.7 |
| 20260508110554 | 66 | 0 | 0.0 | 2.0 | 0.00 | 0.00 | 0.00 | 84 | 1013.7 |
| 20260508110052 | 66 | 0 | 0.0 | 2.0 | 0.00 | 0.00 | 0.00 | 84 | 1013.7 |
| 20260508105557 | 66 | 294 | 0.0 | 2.0 | 0.00 | 0.00 | 0.00 | 84 | 1013.8 |
| 20260508105052 | 66 | 0 | 0.0 | 3.0 | 0.00 | 0.00 | 0.00 | 84 | 1014.0 |
| 20260508104556 | 66 | 0 | 0.0 | 4.0 | 0.00 | 0.00 | 0.00 | 84 | 1014.0 |
| 20260508104053 | 66 | 294 | 1.0 | 4.0 | 0.00 | 0.00 | 0.00 | 84 | 1014.0 |
| 20260508103551 | 66 | 0 | 0.0 | 3.0 | 0.00 | 0.00 | 0.00 | 84 | 1014.1 |
| 20260508103059 | 66 | 290 | 1.0 | 3.0 | 0.00 | 0.00 | 0.00 | 83 | 1014.0 |
| 20260508102551 | 66 | 0 | 0.0 | 1.0 | 0.00 | 0.00 | 0.00 | 84 | 1014.0 |
| 20260508102055 | 65 | 0 | 0.0 | 3.0 | 0.00 | 0.00 | 0.00 | 83 | 1014.0 |
| 20260508101553 | 65 | 0 | 0.0 | 4.0 | 0.00 | 0.00 | 0.00 | 83 | 1013.9 |
| 20260508101055 | 65 | 38 | 1.0 | 4.0 | 0.00 | 0.00 | 0.00 | 83 | 1013.8 |
| 20260508100551 | 65 | 0 | 1.0 | 4.0 | 0.00 | 0.00 | 0.00 | 83 | 1013.8 |
| 20260508100109 | 65 | 43 | 2.0 | 4.0 | 0.00 | 0.00 | 0.00 | 83 | 1013.6 |
| 20260508095555 | 65 | 56 | 1.0 | 4.0 | 0.00 | 0.00 | 0.00 | 83 | 1013.4 |
| 20260508095052 | 65 | 55 | 1.0 | 4.0 | 0.00 | 0.00 | 0.00 | 83 | 1013.7 |
| 20260508094603 | 65 | 0 | 1.0 | 4.0 | 0.00 | 0.00 | 0.00 | 83 | 1013.8 |
| 20260508094051 | 65 | 0 | 0.0 | 4.0 | 0.00 | 0.00 | 0.00 | 83 | 1013.7 |
| 20260508093554 | 65 | 72 | 1.0 | 5.0 | 0.00 | 0.00 | 0.00 | 83 | 1013.5 |
| 20260508093053 | 65 | 74 | 2.0 | 5.0 | 0.00 | 0.00 | 0.00 | 83 | 1013.2 |
| 20260508092555 | 65 | 93 | 1.0 | 4.0 | 0.00 | 0.00 | 0.00 | 83 | 1013.6 |
| 20260508092052 | 65 | 94 | 1.0 | 4.0 | 0.00 | 0.00 | 0.00 | 83 | 1013.2 |
| 20260508091604 | 65 | 78 | 1.0 | 3.0 | 0.00 | 0.00 | 0.00 | 82 | 1013.4 |
| 20260508091051 | 65 | 360 | 1.0 | 3.0 | 0.00 | 0.00 | 0.00 | 83 | 1013.8 |
| 20260508090625 | 65 | 0 | 0.0 | 2.0 | 0.00 | 0.00 | 0.00 | 83 | 1013.8 |
| 20260508090115 | 65 | 289 | 0.0 | 2.0 | 0.00 | 0.00 | 0.00 | 82 | 1014.0 |
| 20260508085555 | 65 | 0 | 0.0 | 4.0 | 0.00 | 0.00 | 0.00 | 82 | 1013.9 |
| 20260508085055 | 65 | 0 | 1.0 | 4.0 | 0.00 | 0.00 | 0.00 | 82 | 1014.1 |
| 20260508084556 | 65 | 39 | 1.0 | 4.0 | 0.00 | 0.00 | 0.00 | 82 | 1013.9 |
| 20260508084052 | 65 | 30 | 1.0 | 4.0 | 0.00 | 0.00 | 0.00 | 82 | 1013.8 |
| 20260508083553 | 65 | 313 | 0.0 | 6.0 | 0.00 | 0.00 | 0.00 | 82 | 1013.7 |
| 20260508083059 | 65 | 107 | 3.0 | 6.0 | 0.00 | 0.00 | 0.00 | 82 | 1012.9 |
| 20260508082555 | 65 | 30 | 1.0 | 4.0 | 0.00 | 0.00 | 0.00 | 82 | 1013.4 |
| 20260508082056 | 65 | 333 | 0.0 | 4.0 | 0.00 | 0.00 | 0.00 | 82 | 1013.7 |
| 20260508081607 | 65 | 0 | 0.0 | 5.0 | 0.00 | 0.00 | 0.00 | 82 | 1013.8 |
| 20260508081054 | 65 | 0 | 1.0 | 5.0 | 0.00 | 0.00 | 0.00 | 82 | 1013.6 |
| 20260508080553 | 65 | 5 | 1.0 | 4.0 | 0.00 | 0.00 | 0.00 | 82 | 1013.5 |
| 20260508080057 | 65 | 62 | 0.0 | 4.0 | 0.00 | 0.00 | 0.00 | 82 | 1013.4 |
| 20260508075554 | 65 | 5 | 1.0 | 5.0 | 0.00 | 0.00 | 0.00 | 82 | 1013.5 |
| 20260508075054 | 65 | 347 | 0.0 | 5.0 | 0.00 | 0.00 | 0.00 | 82 | 1013.8 |
| 20260508074556 | 65 | 33 | 1.0 | 5.0 | 0.00 | 0.00 | 0.00 | 82 | 1013.9 |
| 20260508074056 | 65 | 0 | 0.0 | 3.0 | 0.00 | 0.00 | 0.00 | 82 | 1014.0 |
| 20260508073552 | 65 | 28 | 1.0 | 3.0 | 0.00 | 0.00 | 0.00 | 82 | 1014.2 |
| 20260508073108 | 65 | 344 | 0.0 | 3.0 | 0.00 | 0.00 | 0.00 | 82 | 1014.1 |
| 20260508072554 | 65 | 334 | 0.0 | 2.0 | 0.00 | 0.00 | 0.00 | 82 | 1014.2 |
| 20260508072051 | 65 | 0 | 0.0 | 4.0 | 0.00 | 0.00 | 0.00 | 82 | 1014.3 |
| 20260508071602 | 65 | 350 | 0.0 | 4.0 | 0.00 | 0.00 | 0.00 | 82 | 1014.2 |
| 20260508071053 | 65 | 327 | 1.0 | 4.0 | 0.00 | 0.00 | 0.00 | 82 | 1014.6 |
| 20260508070551 | 65 | 0 | 1.0 | 3.0 | 0.00 | 0.00 | 0.00 | 82 | 1014.6 |
| 20260508070058 | 65 | 320 | 1.0 | 3.0 | 0.00 | 0.00 | 0.00 | 82 | 1014.8 |
| 20260508065553 | 65 | 0 | 0.0 | 0.0 | 0.00 | 0.00 | 0.00 | 82 | 1014.9 |
| 20260508065050 | 65 | 0 | 0.0 | 1.0 | 0.00 | 0.00 | 0.00 | 82 | 1014.8 |
| 20260508064606 | 65 | 0 | 0.0 | 3.0 | 0.00 | 0.00 | 0.00 | 82 | 1014.7 |
| 20260508064054 | 65 | 0 | 0.0 | 3.0 | 0.00 | 0.00 | 0.00 | 82 | 1014.7 |
| 20260508063554 | 65 | 15 | 0.0 | 2.0 | 0.00 | 0.00 | 0.00 | 82 | 1014.7 |
| 20260508063106 | 65 | 0 | 0.0 | 2.0 | 0.00 | 0.00 | 0.00 | 82 | 1014.7 |
| 20260508062557 | 65 | 0 | 0.0 | 3.0 | 0.00 | 0.00 | 0.00 | 81 | 1014.6 |
| 20260508062053 | 65 | 0 | 0.0 | 3.0 | 0.00 | 0.00 | 0.00 | 82 | 1014.7 |
| 20260508061606 | 65 | 315 | 1.0 | 3.0 | 0.00 | 0.00 | 0.00 | 81 | 1014.6 |
| 20260508061053 | 65 | 0 | 0.0 | 2.0 | 0.00 | 0.00 | 0.00 | 82 | 1014.8 |
| 20260508060554 | 65 | 0 | 0.0 | 4.0 | 0.00 | 0.00 | 0.00 | 82 | 1014.5 |
| 20260508060105 | 65 | 0 | 0.0 | 4.0 | 0.00 | 0.00 | 0.00 | 81 | 1014.5 |
| 20260508055553 | 65 | 71 | 1.0 | 4.0 | 0.00 | 0.00 | 0.00 | 81 | 1014.3 |
| 20260508055053 | 65 | 0 | 0.0 | 4.0 | 0.00 | 0.00 | 0.00 | 81 | 1014.1 |
| 20260508054554 | 65 | 0 | 0.0 | 4.0 | 0.00 | 0.00 | 0.00 | 81 | 1014.0 |
| 20260508054054 | 65 | 68 | 2.0 | 4.0 | 0.00 | 0.00 | 0.00 | 81 | 1014.0 |
| 20260508053553 | 65 | 0 | 1.0 | 4.0 | 0.00 | 0.00 | 0.00 | 81 | 1013.9 |
| 20260508053059 | 65 | 34 | 1.0 | 4.0 | 0.00 | 0.00 | 0.00 | 81 | 1014.0 |
| 20260508052551 | 65 | 32 | 2.0 | 4.0 | 0.00 | 0.00 | 0.00 | 81 | 1014.2 |
| 20260508052052 | 65 | 28 | 1.0 | 3.0 | 0.00 | 0.00 | 0.00 | 81 | 1014.4 |
| 20260508051608 | 65 | 33 | 0.0 | 3.0 | 0.00 | 0.00 | 0.00 | 81 | 1014.3 |
| 20260508051053 | 65 | 0 | 0.0 | 3.0 | 0.00 | 0.00 | 0.00 | 81 | 1014.6 |
| 20260508050556 | 65 | 0 | 0.0 | 3.0 | 0.00 | 0.00 | 0.00 | 81 | 1014.6 |
| 20260508050057 | 65 | 34 | 1.0 | 5.0 | 0.00 | 0.00 | 0.00 | 81 | 1014.5 |
| 20260508045553 | 65 | 0 | 1.0 | 5.0 | 0.00 | 0.00 | 0.00 | 81 | 1014.6 |
| 20260508045053 | 65 | 42 | 0.0 | 4.0 | 0.00 | 0.00 | 0.00 | 81 | 1014.4 |
| 20260508044553 | 65 | 30 | 2.0 | 4.0 | 0.00 | 0.00 | 0.00 | 81 | 1014.5 |
| 20260508044054 | 65 | 50 | 0.0 | 5.0 | 0.00 | 0.00 | 0.00 | 81 | 1014.6 |
| 20260508043555 | 65 | 42 | 1.0 | 5.0 | 0.00 | 0.00 | 0.00 | 81 | 1014.6 |
| 20260508043055 | 65 | 17 | 1.0 | 4.0 | 0.00 | 0.00 | 0.00 | 81 | 1014.9 |
| 20260508042553 | 65 | 31 | 1.0 | 4.0 | 0.00 | 0.00 | 0.00 | 81 | 1015.1 |
| 20260508042053 | 65 | 26 | 1.0 | 3.0 | 0.00 | 0.00 | 0.00 | 81 | 1014.9 |
| 20260508041555 | 65 | 0 | 1.0 | 4.0 | 0.00 | 0.00 | 0.00 | 81 | 1015.0 |
| 20260508041053 | 65 | 9 | 1.0 | 4.0 | 0.00 | 0.00 | 0.00 | 81 | 1014.9 |
| 20260508040553 | 65 | 23 | 1.0 | 3.0 | 0.00 | 0.00 | 0.00 | 81 | 1014.9 |
| 20260508040058 | 65 | 0 | 0.0 | 3.0 | 0.00 | 0.00 | 0.00 | 81 | 1015.0 |
| 20260508035553 | 66 | 0 | 0.0 | 4.0 | 0.00 | 0.00 | 0.00 | 81 | 1015.1 |
| 20260508035053 | 65 | 0 | 0.0 | 4.0 | 0.00 | 0.00 | 0.00 | 80 | 1014.9 |
| 20260508034555 | 66 | 5 | 0.0 | 3.0 | 0.00 | 0.00 | 0.00 | 81 | 1014.8 |
| 20260508034052 | 66 | 0 | 0.0 | 4.0 | 0.00 | 0.00 | 0.00 | 80 | 1014.9 |
| 20260508033554 | 66 | 51 | 0.0 | 4.0 | 0.00 | 0.00 | 0.00 | 80 | 1014.2 |
| 20260508033059 | 66 | 0 | 2.0 | 4.0 | 0.00 | 0.00 | 0.00 | 80 | 1013.9 |
| 20260508032553 | 66 | 40 | 1.0 | 3.0 | 0.00 | 0.00 | 0.00 | 80 | 1013.9 |
| 20260508032054 | 66 | 42 | 1.0 | 3.0 | 0.00 | 0.00 | 0.00 | 80 | 1013.9 |
| 20260508031558 | 66 | 0 | 0.0 | 3.0 | 0.00 | 0.00 | 0.00 | 79 | 1014.1 |
| 20260508031053 | 66 | 0 | 0.0 | 6.0 | 0.00 | 0.00 | 0.00 | 79 | 1014.2 |
| 20260508030553 | 66 | 53 | 2.0 | 6.0 | 0.00 | 0.00 | 0.00 | 79 | 1014.2 |
| 20260508025556 | 66 | 34 | 1.0 | 5.0 | 0.00 | 0.00 | 0.00 | 78 | 1014.3 |
| 20260508025053 | 66 | 0 | 1.0 | 5.0 | 0.00 | 0.00 | 0.00 | 78 | 1014.2 |
| 20260508024617 | 66 | 41 | 2.0 | 7.0 | 0.00 | 0.00 | 0.00 | 78 | 1013.9 |
| 20260508024053 | 66 | 85 | 2.0 | 8.0 | 0.00 | 0.00 | 0.00 | 78 | 1013.6 |
| 20260508023552 | 66 | 86 | 4.0 | 8.0 | 0.00 | 0.00 | 0.00 | 78 | 1013.2 |
| 20260508023103 | 66 | 88 | 3.0 | 9.0 | 0.00 | 0.00 | 0.00 | 78 | 1013.3 |
| 20260508022556 | 66 | 98 | 4.0 | 9.0 | 0.00 | 0.00 | 0.00 | 78 | 1013.2 |
| 20260508022055 | 66 | 74 | 3.0 | 7.0 | 0.00 | 0.00 | 0.00 | 78 | 1013.5 |
| 20260508021606 | 66 | 93 | 3.0 | 6.0 | 0.00 | 0.00 | 0.00 | 78 | 1014.0 |
| 20260508021052 | 67 | 67 | 1.0 | 6.0 | 0.00 | 0.00 | 0.00 | 78 | 1014.4 |
| 20260508020552 | 67 | 28 | 2.0 | 6.0 | 0.00 | 0.00 | 0.00 | 78 | 1014.6 |
| 20260508020104 | 67 | 85 | 2.0 | 7.0 | 0.00 | 0.00 | 0.00 | 78 | 1014.6 |
| 20260508015552 | 67 | 37 | 2.0 | 7.0 | 0.00 | 0.00 | 0.00 | 78 | 1014.6 |
| 20260508015053 | 67 | 59 | 2.0 | 5.0 | 0.00 | 0.00 | 0.00 | 78 | 1014.4 |
| 20260508014557 | 67 | 43 | 2.0 | 4.0 | 0.00 | 0.00 | 0.00 | 78 | 1014.5 |
| 20260508014052 | 67 | 18 | 1.0 | 4.0 | 0.00 | 0.00 | 0.00 | 77 | 1014.6 |
| 20260508013553 | 67 | 32 | 2.0 | 5.0 | 0.00 | 0.00 | 0.00 | 77 | 1014.6 |
| 20260508013054 | 67 | 47 | 1.0 | 5.0 | 0.00 | 0.00 | 0.00 | 76 | 1014.6 |
| 20260508012554 | 67 | 350 | 1.0 | 6.0 | 0.00 | 0.00 | 0.00 | 76 | 1014.7 |
| 20260508012053 | 68 | 94 | 3.0 | 6.0 | 0.00 | 0.00 | 0.00 | 76 | 1014.7 |
| 20260508011602 | 68 | 48 | 2.0 | 6.0 | 0.00 | 0.00 | 0.00 | 76 | 1014.8 |
| 20260508011053 | 68 | 5 | 1.0 | 4.0 | 0.00 | 0.00 | 0.00 | 76 | 1014.9 |
| 20260508010553 | 68 | 313 | 1.0 | 5.0 | 0.00 | 0.00 | 0.00 | 76 | 1014.9 |
| 20260508010056 | 68 | 38 | 2.0 | 5.0 | 0.00 | 0.00 | 0.00 | 76 | 1014.6 |
| 20260508005555 | 68 | 69 | 1.0 | 6.0 | 0.00 | 0.00 | 0.00 | 76 | 1014.5 |
| 20260508005053 | 69 | 59 | 1.0 | 6.0 | 0.00 | 0.00 | 0.00 | 76 | 1014.4 |
| 20260508004559 | 69 | 63 | 1.0 | 5.0 | 0.00 | 0.00 | 0.00 | 75 | 1014.4 |
| 20260508004053 | 69 | 46 | 2.0 | 7.0 | 0.00 | 0.00 | 0.00 | 75 | 1014.5 |
| 20260508003552 | 69 | 32 | 2.0 | 7.0 | 0.00 | 0.00 | 0.00 | 75 | 1014.6 |
| 20260508003054 | 69 | 35 | 2.0 | 9.0 | 0.00 | 0.00 | 0.00 | 75 | 1014.6 |
| 20260508002553 | 69 | 22 | 3.0 | 9.0 | 0.00 | 0.00 | 0.00 | 74 | 1014.8 |
| 20260508002053 | 69 | 35 | 3.0 | 9.0 | 0.00 | 0.00 | 0.00 | 74 | 1014.7 |
| 20260508001552 | 69 | 20 | 2.0 | 11.0 | 0.00 | 0.00 | 0.00 | 74 | 1014.7 |
| 20260508001053 | 70 | 74 | 4.0 | 11.0 | 0.00 | 0.00 | 0.00 | 74 | 1015.0 |
| 20260508000554 | 70 | 338 | 4.0 | 11.0 | 0.00 | 0.00 | 0.00 | 74 | 1014.9 |
| 20260508000054 | 70 | 41 | 3.0 | 8.0 | 0.00 | 0.00 | 0.00 | 74 | 1014.9 |
| 20260507235553 | 70 | 11 | 3.0 | 13.0 | 0.00 | 0.00 | 0.00 | 73 | 1014.9 |
| 20260507235052 | 71 | 0 | 3.0 | 13.0 | 0.00 | 0.00 | 0.00 | 73 | 1014.8 |
| 20260507234557 | 71 | 47 | 6.0 | 13.0 | 0.00 | 0.00 | 0.00 | 72 | 1014.7 |
| 20260507234052 | 71 | 69 | 2.0 | 10.0 | 0.00 | 0.00 | 0.00 | 73 | 1014.8 |
| 20260507233552 | 71 | 47 | 5.0 | 10.0 | 0.00 | 0.00 | 0.00 | 72 | 1014.9 |
| 20260507233100 | 72 | 272 | 2.0 | 9.0 | 0.00 | 0.00 | 0.00 | 73 | 1015.1 |
| 20260507232555 | 72 | 355 | 3.0 | 12.0 | 0.00 | 0.00 | 0.00 | 72 | 1015.0 |
| 20260507232055 | 72 | 75 | 4.0 | 12.0 | 0.00 | 0.00 | 0.00 | 71 | 1015.2 |
| 20260507231559 | 73 | 344 | 4.0 | 12.0 | 0.00 | 0.00 | 0.00 | 71 | 1015.1 |
| 20260507231052 | 73 | 320 | 5.0 | 13.0 | 0.00 | 0.00 | 0.00 | 70 | 1014.8 |
| 20260507230555 | 74 | 53 | 4.0 | 13.0 | 0.00 | 0.00 | 0.00 | 70 | 1014.7 |
| 20260507230110 | 74 | 336 | 5.0 | 13.0 | 0.00 | 0.00 | 0.00 | 70 | 1014.7 |
| 20260507225553 | 74 | 5 | 4.0 | 9.0 | 0.00 | 0.00 | 0.00 | 71 | 1014.6 |
| 20260507225053 | 74 | 29 | 3.0 | 9.0 | 0.00 | 0.00 | 0.00 | 72 | 1014.6 |
| 20260507224556 | 74 | 17 | 3.0 | 9.0 | 0.00 | 0.00 | 0.00 | 72 | 1014.6 |
| 20260507224057 | 75 | 57 | 4.0 | 10.0 | 0.00 | 0.00 | 0.00 | 72 | 1014.5 |
| 20260507223553 | 75 | 86 | 3.0 | 10.0 | 0.00 | 0.00 | 0.00 | 72 | 1014.5 |
| 20260507223052 | 75 | 24 | 4.0 | 13.0 | 0.00 | 0.00 | 0.00 | 71 | 1014.6 |
| 20260507222553 | 75 | 342 | 5.0 | 13.0 | 0.00 | 0.00 | 0.00 | 71 | 1014.6 |
| 20260507222052 | 76 | 38 | 5.0 | 12.0 | 0.00 | 0.00 | 0.00 | 72 | 1014.5 |
| 20260507221558 | 76 | 42 | 4.0 | 9.0 | 0.00 | 0.00 | 0.00 | 71 | 1014.5 |
| 20260507221051 | 76 | 33 | 3.0 | 9.0 | 0.00 | 0.00 | 0.00 | 73 | 1014.6 |
| 20260507220552 | 76 | 29 | 1.0 | 8.0 | 0.00 | 0.00 | 0.00 | 72 | 1014.4 |
| 20260507220059 | 76 | 74 | 2.0 | 9.0 | 0.00 | 0.00 | 0.00 | 72 | 1014.3 |
| 20260507215556 | 76 | 81 | 2.0 | 10.0 | 0.00 | 0.00 | 0.00 | 73 | 1014.3 |
| 20260507215055 | 76 | 32 | 5.0 | 10.0 | 0.00 | 0.00 | 0.00 | 72 | 1014.1 |
| 20260507214557 | 76 | 72 | 4.0 | 9.0 | 0.00 | 0.00 | 0.00 | 72 | 1014.1 |
| 20260507214052 | 75 | 37 | 6.0 | 9.0 | 0.00 | 0.00 | 0.00 | 72 | 1014.0 |
| 20260507213553 | 75 | 90 | 3.0 | 12.0 | 0.00 | 0.00 | 0.00 | 73 | 1013.9 |
| 20260507213101 | 75 | 89 | 5.0 | 12.0 | 0.00 | 0.00 | 0.00 | 72 | 1014.2 |
| 20260507212552 | 75 | 67 | 6.0 | 12.0 | 0.00 | 0.00 | 0.00 | 71 | 1014.3 |
| 20260507212053 | 75 | 100 | 5.0 | 11.0 | 0.00 | 0.00 | 0.00 | 72 | 1014.2 |
| 20260507211605 | 75 | 51 | 4.0 | 9.0 | 0.00 | 0.00 | 0.00 | 72 | 1014.3 |
| 20260507211052 | 76 | 52 | 3.0 | 14.0 | 0.00 | 0.00 | 0.00 | 72 | 1014.3 |
| 20260507210557 | 76 | 34 | 4.0 | 14.0 | 0.00 | 0.00 | 0.00 | 71 | 1014.3 |
| 20260507210112 | 76 | 26 | 5.0 | 14.0 | 0.00 | 0.00 | 0.00 | 72 | 1014.3 |
| 20260507205553 | 76 | 62 | 5.0 | 11.0 | 0.00 | 0.00 | 0.00 | 72 | 1014.4 |
| 20260507205053 | 76 | 65 | 4.0 | 11.0 | 0.00 | 0.00 | 0.00 | 72 | 1014.6 |
| 20260507204601 | 76 | 5 | 3.0 | 11.0 | 0.00 | 0.00 | 0.00 | 72 | 1014.7 |
| 20260507204053 | 76 | 38 | 5.0 | 11.0 | 0.00 | 0.00 | 0.00 | 72 | 1014.8 |
| 20260507203553 | 76 | 84 | 4.0 | 15.0 | 0.00 | 0.00 | 0.00 | 72 | 1014.9 |
| 20260507203125 | 76 | 57 | 6.0 | 15.0 | 0.00 | 0.00 | 0.00 | 72 | 1015.0 |
| 20260507202552 | 75 | 315 | 5.0 | 13.0 | 0.00 | 0.00 | 0.00 | 73 | 1015.2 |
| 20260507202057 | 75 | 49 | 3.0 | 13.0 | 0.00 | 0.00 | 0.00 | 73 | 1015.3 |
| 20260507201555 | 75 | 76 | 5.0 | 12.0 | 0.00 | 0.00 | 0.00 | 72 | 1015.3 |
| 20260507201053 | 75 | 44 | 4.0 | 12.0 | 0.00 | 0.00 | 0.00 | 73 | 1015.3 |
| 20260507200554 | 75 | 36 | 5.0 | 12.0 | 0.00 | 0.00 | 0.00 | 72 | 1015.3 |
| 20260507195552 | 75 | 34 | 3.0 | 11.0 | 0.00 | 0.00 | 0.00 | 72 | 1015.3 |
| 20260507195057 | 75 | 45 | 4.0 | 12.0 | 0.00 | 0.00 | 0.00 | 72 | 1015.3 |
| 20260507194619 | 75 | 52 | 5.0 | 13.0 | 0.00 | 0.00 | 0.00 | 73 | 1015.3 |
| 20260507194052 | 75 | 23 | 5.0 | 13.0 | 0.00 | 0.00 | 0.00 | 72 | 1015.3 |
| 20260507193553 | 74 | 44 | 5.0 | 14.0 | 0.00 | 0.00 | 0.00 | 73 | 1015.3 |
| 20260507193058 | 74 | 121 | 4.0 | 15.0 | 0.00 | 0.00 | 0.00 | 75 | 1015.5 |
| 20260507192552 | 73 | 76 | 5.0 | 15.0 | 0.00 | 0.00 | 0.00 | 74 | 1015.6 |
| 20260507192053 | 73 | 59 | 5.0 | 15.0 | 0.00 | 0.00 | 0.00 | 74 | 1015.6 |
| 20260507191553 | 73 | 51 | 4.0 | 11.0 | 0.00 | 0.00 | 0.00 | 74 | 1015.7 |
| 20260507191055 | 73 | 59 | 5.0 | 13.0 | 0.00 | 0.00 | 0.00 | 76 | 1015.6 |
| 20260507190552 | 72 | 35 | 6.0 | 13.0 | 0.00 | 0.00 | 0.00 | 75 | 1015.7 |
| 20260507190059 | 71 | 40 | 5.0 | 12.0 | 0.00 | 0.00 | 0.00 | 76 | 1015.8 |
| 20260507185552 | 71 | 52 | 4.0 | 11.0 | 0.00 | 0.00 | 0.00 | 76 | 1015.9 |
| 20260507185052 | 71 | 76 | 5.0 | 11.0 | 0.00 | 0.00 | 0.00 | 76 | 1016.0 |
| 20260507184554 | 70 | 5 | 3.0 | 9.0 | 0.00 | 0.00 | 0.00 | 77 | 1016.1 |
| 20260507184052 | 69 | 69 | 3.0 | 8.0 | 0.00 | 0.00 | 0.00 | 78 | 1016.4 |
| 20260507183553 | 69 | 90 | 3.0 | 8.0 | 0.00 | 0.00 | 0.00 | 79 | 1016.5 |
| 20260507183056 | 69 | 71 | 4.0 | 12.0 | 0.00 | 0.00 | 0.00 | 78 | 1016.5 |
| 20260507182553 | 68 | 53 | 5.0 | 13.0 | 0.00 | 0.00 | 0.00 | 78 | 1016.7 |
| 20260507182053 | 68 | 89 | 6.0 | 13.0 | 0.00 | 0.00 | 0.00 | 78 | 1016.7 |
| 20260507181553 | 68 | 20 | 3.0 | 11.0 | 0.00 | 0.00 | 0.00 | 79 | 1016.9 |
| 20260507181053 | 68 | 28 | 2.0 | 11.0 | 0.00 | 0.00 | 0.00 | 79 | 1016.9 |
| 20260507180553 | 68 | 249 | 4.0 | 12.0 | 0.00 | 0.00 | 0.00 | 78 | 1017.0 |
| 20260507180053 | 68 | 304 | 3.0 | 12.0 | 0.00 | 0.00 | 0.00 | 78 | 1017.1 |
| 20260507175552 | 68 | 324 | 5.0 | 12.0 | 0.00 | 0.00 | 0.00 | 78 | 1017.1 |
| 20260507175053 | 68 | 76 | 6.0 | 12.0 | 0.00 | 0.00 | 0.00 | 78 | 1017.1 |
| 20260507174558 | 68 | 44 | 4.0 | 16.0 | 0.00 | 0.00 | 0.00 | 79 | 1017.3 |
| 20260507174053 | 68 | 59 | 5.0 | 16.0 | 0.00 | 0.00 | 0.00 | 80 | 1017.3 |
| 20260507173552 | 67 | 36 | 6.0 | 16.0 | 0.00 | 0.00 | 0.00 | 80 | 1017.3 |